Home > Weather > Saarbrücken > Past weeks

Flag for Germany Past Weather in Saarbrücken, Saarland, Germany — Yesterday and Last 2 Weeks

Now
64 °F

Mild.


Feels Like: 64 °F
Forecast: 61 / 78 °F
Wind: 5 mph from Northwest

Location: Saarbruecken / Ensheim

Current Time: Jul 24, 2016 at 1:16:12 AM

Latest Report: Jul 24, 2016 at 12:50 AM


Visibility: 3 mi

Pressure: 30.12 "Hg

Humidity: 94%

Dew Point: 63 °F

Location of SaarbrückenLocation

Past Weather in Saarbrücken — Graph

°F

Saarbrücken Temperature Yesterday

Maximum temperature yesterday: 73 °F (at 2:20 PM)
Minimum temperature yesterday: 64 °F (at 12:20 AM)
Average temperature yesterday: 67 °F

High & Low Weather Summary for the Past Weeks

 TemperatureHumidityPressure
High90 °F (Jul 20, 2:50 PM)100% (Jul 15, 12:50 AM)30.33 "Hg (Jul 15, 12:50 AM)
Low46 °F (Jul 15, 4:50 AM)31% (Jul 20, 5:50 PM)29.86 "Hg (Jul 10, 6:50 PM)
Average68 °F72%30.09 "Hg
* Reported Jul 9 12:20 AM — Jul 24 12:20 AM, Saarbrücken, Weather by CustomWeather, © 2016

Note: Actual official high and low records may vary slightly from our data, if they occured in-between our weather recording intervals... More about our weather records

Advertising

Saarbrücken Weather History for the Previous 24 Hours

Scroll right to see more
 ConditionsComfort  
Time TempWeatherWind HumidityBarometerVisibility
12:20 AM
Sun, Jul 24
64 °FPassing clouds.3 mph94%30.09 "Hg6 mi
11:50 PM
Sat, Jul 23
64 °FPassing clouds.2 mph94%30.09 "HgN/A
11:20 PM64 °FClear.2 mph94%30.09 "Hg10 mi
10:50 PM66 °FPassing clouds.2 mph88%30.09 "HgN/A
10:20 PM66 °FScattered clouds.3 mph88%30.09 "HgN/A
9:50 PM68 °FScattered clouds.5 mph88%30.09 "HgN/A
9:20 PM70 °FScattered clouds.2 mph83%30.07 "HgN/A
8:50 PM70 °FScattered clouds.5 mph83%30.07 "HgN/A
8:20 PM70 °FScattered clouds.No wind83%30.07 "HgN/A
7:50 PM72 °FScattered clouds.3 mph78%30.07 "HgN/A
7:20 PM72 °FScattered clouds.1 mph78%30.07 "HgN/A
6:50 PM72 °FScattered clouds.5 mph78%30.07 "HgN/A
6:20 PM72 °FScattered showers. Broken clouds.2 mph78%30.07 "HgN/A
5:50 PM72 °FSprinkles. Broken clouds.5 mph78%30.07 "HgN/A
5:20 PM73 °FScattered showers. Broken clouds.6 mph78%30.07 "HgN/A
4:50 PM73 °FScattered showers. Partly sunny.2 mph74%30.07 "HgN/A
4:20 PM73 °FScattered showers. Partly sunny.5 mph69%30.07 "HgN/A
3:50 PM73 °FPartly sunny.2 mph74%30.07 "HgN/A
3:20 PM73 °FPartly sunny.2 mph74%30.07 "HgN/A
2:50 PM73 °FPartly sunny.2 mph69%30.07 "HgN/A
2:20 PM73 °FPartly sunny.5 mph74%30.07 "HgN/A
1:50 PM70 °FPartly sunny.3 mph78%30.07 "HgN/A
1:20 PM70 °FBroken clouds.2 mph78%30.07 "HgN/A
12:50 PM68 °FBroken clouds.3 mph83%30.07 "HgN/A
12:20 PM68 °FBroken clouds.3 mph88%30.07 "HgN/A
11:50 AM66 °FBroken clouds.3 mph94%30.07 "HgN/A
11:20 AM66 °FPartly sunny.2 mph94%30.07 "HgN/A
10:50 AM64 °FLight rain. Partly sunny.2 mph100%30.07 "Hg5 mi
10:20 AM64 °FFog.1 mph94%30.07 "Hg3 mi
9:50 AM64 °FLight rain. Fog.3 mph94%30.07 "Hg2 mi
9:20 AM64 °FHeavy rain. Fog.6 mph94%30.07 "Hg1 mi
8:50 AM64 °FRain. Fog.6 mph94%30.04 "Hg1 mi
8:20 AM64 °FLight rain. Fog.5 mph94%30.04 "Hg2 mi
7:50 AM64 °FDrizzle. Fog.6 mph94%30.04 "Hg2 mi
7:20 AM64 °FFog.2 mph94%30.04 "Hg3 mi
6:50 AM64 °FFog.No wind94%30.04 "Hg3 mi
6:20 AM64 °FFog.No wind94%30.04 "Hg3 mi
5:50 AM64 °FPassing clouds.No wind94%30.04 "Hg4 mi
5:20 AM64 °FPassing clouds.2 mph94%30.04 "HgN/A
4:50 AM64 °FPassing clouds.1 mph94%30.04 "HgN/A
4:20 AM64 °FPartly cloudy.No wind94%30.04 "HgN/A
3:50 AM64 °FPartly cloudy.No wind94%30.04 "HgN/A
3:20 AM64 °FLow clouds.No wind94%30.04 "HgN/A
2:50 AM64 °FLow clouds.No wind94%30.04 "HgN/A
2:20 AM64 °FPassing clouds.3 mph94%30.04 "HgN/A
1:50 AM64 °FLow clouds.5 mph94%30.04 "HgN/A
1:20 AM64 °FLow clouds.No wind94%30.04 "HgN/A
Weather by CustomWeather, © 2016

See weather overviewHow to use our weather pages